User: anonymous   Login
Location: Santa Barbara
(34.4500°N, 119.7700°W)
Time: 02:29:31
(UTC-07:00)
Language:

Cosmos 1626 Rocket - Orbit

View from above orbital plane
View from above orbital plane
View from above satellite
View from above satellite

Ground track
Ground track

The orbit data is extracted from the following two-line orbital elements,

1 15495U 85009B   15209.19131358  .00000148  00000-0  14921-4 0  9998
2 15495 082.5260 113.7009 0021844 086.5697 273.8016 14.83588278647659
Epoch (UTC): 28 July 2015 04:35:29
Eccentricity: 0.0021844
inclination: 82.5260°
perigee height: 603 km
apogee height: 633 km
right ascension of ascending node: 113.7009°
argument of perigee: 86.5697°
revolutions per day: 14.83588278
mean anomaly at epoch: 273.8016°
orbit number at epoch: 64765

The dashed part of the orbit path shows where the satellite is in the earth's shadow,  

DLR